Time,TemperatureF,DewpointF,PressureIn,WindDirection,WindDirectionDegrees,WindSpeedMPH,WindSpeedGustMPH,Humidity,HourlyPrecipIn,Conditions,Clouds,dailyrainin,SolarRadiationWatts/m^2,SoftwareType,DateUTC
2013-07-05 00:22:00,77.0,76.0,-100.00,East,100,4.0,-999.0,96,0.00,,,-99.99,0.000000,,2013-07-05 04:22:00,
2013-07-05 00:33:00,77.0,76.0,-100.00,ESE,111,3.0,-999.0,96,0.00,,,-99.99,0.000000,,2013-07-05 04:33:00,
2013-07-05 00:53:00,77.0,76.0,-100.00,ESE,103,3.0,-999.0,96,0.00,,,-99.99,0.000000,,2013-07-05 04:53:00,
2013-07-05 01:22:00,77.0,76.0,-100.00,East,101,3.0,-999.0,96,0.00,,,-99.99,0.000000,,2013-07-05 05:22:00,
2013-07-05 01:33:00,76.0,75.0,-100.00,ENE,73,3.0,-999.0,96,0.00,,,-99.99,0.000000,,2013-07-05 05:33:00,
2013-07-05 01:52:00,76.0,75.0,-100.00,ENE,67,4.0,-999.0,97,0.00,,,-99.99,0.000000,,2013-07-05 05:52:00,
2013-07-05 02:02:00,76.0,75.0,-100.00,East,81,3.0,-999.0,97,0.00,,,-99.99,0.000000,,2013-07-05 06:02:00,
2013-07-05 02:23:00,75.0,74.0,-100.00,ENE,59,4.0,-999.0,96,0.00,,,-99.99,0.000000,,2013-07-05 06:23:00,
2013-07-05 02:34:00,75.0,74.0,-100.00,ENE,71,3.0,-999.0,96,0.00,,,-99.99,0.000000,,2013-07-05 06:34:00,
2013-07-05 02:53:00,75.0,74.0,-100.00,ENE,71,2.0,-999.0,97,0.00,,,-99.99,0.000000,,2013-07-05 06:53:00,
2013-07-05 03:02:00,74.0,74.0,-100.00,ENE,65,3.0,-999.0,97,0.00,,,-99.99,0.000000,,2013-07-05 07:02:00,
2013-07-05 03:23:00,74.0,74.0,-100.00,ENE,62,4.0,-999.0,98,0.00,,,-99.99,0.000000,,2013-07-05 07:23:00,
2013-07-05 03:34:00,74.0,74.0,-100.00,ENE,78,4.0,-999.0,98,0.00,,,-99.99,0.000000,,2013-07-05 07:34:00,
2013-07-05 03:53:00,76.0,75.0,-100.00,ESE,117,3.0,-999.0,97,0.00,,,-99.99,0.000000,,2013-07-05 07:53:00,
2013-07-05 04:02:00,76.0,75.0,-100.00,East,92,4.0,-999.0,96,0.00,,,-99.99,0.000000,,2013-07-05 08:02:00,
2013-07-05 04:23:00,75.0,75.0,-100.00,ENE,63,5.0,-999.0,97,0.00,,,-99.99,0.000000,,2013-07-05 08:23:00,
2013-07-05 04:33:00,75.0,75.0,-100.00,ENE,68,6.0,-999.0,97,0.00,,,-99.99,0.000000,,2013-07-05 08:33:00,
2013-07-05 04:57:00,75.0,75.0,-100.00,ENE,70,7.0,-999.0,98,0.00,,,-99.99,0.000000,,2013-07-05 08:57:00,
2013-07-05 05:08:00,75.0,75.0,-100.00,East,93,5.0,-999.0,98,0.00,,,-99.99,0.000000,,2013-07-05 09:08:00,
2013-07-05 05:27:00,75.0,75.0,-100.00,ESE,108,1.0,-999.0,98,0.00,,,-99.99,0.000000,,2013-07-05 09:27:00,
2013-07-05 05:37:00,75.0,74.0,-100.00,South,182,1.0,-999.0,98,0.00,,,-99.99,0.000000,,2013-07-05 09:37:00,
2013-07-05 05:56:00,75.0,74.0,-100.00,SSE,151,2.0,-999.0,99,0.00,,,-99.99,0.000000,,2013-07-05 09:56:00,
2013-07-05 06:26:00,75.0,75.0,-100.00,East,82,3.0,-999.0,99,0.00,,,-99.99,0.000000,,2013-07-05 10:26:00,
2013-07-05 06:58:00,75.0,74.0,-100.00,ENE,74,2.0,-999.0,99,0.00,,,-99.99,2.400000,,2013-07-05 10:58:00,
2013-07-05 07:08:00,74.0,74.0,-100.00,East,98,3.0,-999.0,99,0.00,,,-99.99,4.000000,,2013-07-05 11:08:00,
2013-07-05 07:25:00,74.0,74.0,-100.00,ESE,119,2.0,-999.0,99,0.00,,,-99.99,13.000000,,2013-07-05 11:25:00,
2013-07-05 07:37:00,75.0,75.0,-100.00,NE,49,2.0,-999.0,99,0.00,,,-99.99,42.099998,,2013-07-05 11:37:00,
2013-07-05 08:00:00,75.0,75.0,-100.00,NE,40,2.0,-999.0,99,0.00,,,-99.99,35.400002,,2013-07-05 12:00:00,
2013-07-05 08:25:00,75.0,75.0,-100.00,NE,44,2.0,-999.0,99,0.00,,,-99.99,26.299999,,2013-07-05 12:25:00,
2013-07-05 08:37:00,76.0,76.0,-100.00,ENE,75,3.0,-999.0,99,0.00,,,-99.99,72.500000,,2013-07-05 12:37:00,
2013-07-05 09:00:00,78.0,77.0,-100.00,East,85,2.0,-999.0,98,0.00,,,-99.99,203.199997,,2013-07-05 13:00:00,
2013-07-05 09:06:00,80.0,79.0,-100.00,East,98,3.0,-999.0,95,0.00,,,-99.99,335.100006,,2013-07-05 13:06:00,
2013-07-05 09:25:00,82.0,79.0,-100.00,East,101,7.0,-999.0,90,0.00,,,-99.99,320.100006,,2013-07-05 13:25:00,
2013-07-05 09:58:00,83.0,77.0,-100.00,ESE,104,10.0,-999.0,82,0.00,,,-99.99,463.700012,,2013-07-05 13:58:00,
2013-07-05 10:07:00,83.0,77.0,-100.00,ESE,110,12.0,-999.0,81,0.00,,,-99.99,529.400024,,2013-07-05 14:07:00,
2013-07-05 10:16:00,83.0,77.0,-100.00,ESE,110,12.0,-999.0,81,0.00,,,-99.99,529.400024,,2013-07-05 14:16:00,
2013-07-05 10:28:00,84.0,77.0,-100.00,ESE,109,13.0,-999.0,78,0.00,,,-99.99,598.400024,,2013-07-05 14:28:00,
2013-07-05 10:37:00,84.0,77.0,-100.00,ESE,109,13.0,-999.0,78,0.00,,,-99.99,598.400024,,2013-07-05 14:37:00,
2013-07-05 11:24:00,85.0,75.0,-100.00,ESE,107,14.0,-999.0,73,0.00,,,-99.99,694.200012,,2013-07-05 15:24:00,
2013-07-05 11:34:00,85.0,75.0,-100.00,ESE,107,14.0,-999.0,73,0.00,,,-99.99,694.200012,,2013-07-05 15:34:00,
2013-07-05 11:43:00,85.0,76.0,-100.00,ESE,110,14.0,-999.0,73,0.00,,,-99.99,735.000000,,2013-07-05 15:43:00,
2013-07-05 12:02:00,85.0,75.0,-100.00,ESE,114,13.0,-999.0,71,0.00,,,-99.99,827.000000,,2013-07-05 16:02:00,
2013-07-05 12:22:00,85.0,75.0,-100.00,ESE,116,14.0,-999.0,69,0.00,,,-99.99,807.000000,,2013-07-05 16:22:00,
2013-07-05 12:33:00,85.0,75.0,-100.00,ESE,109,16.0,-999.0,69,0.00,,,-99.99,903.000000,,2013-07-05 16:33:00,
2013-07-05 12:44:00,85.0,75.0,-100.00,ESE,109,16.0,-999.0,69,0.00,,,-99.99,903.000000,,2013-07-05 16:44:00,
2013-07-05 12:53:00,86.0,74.0,-100.00,ESE,104,15.0,-999.0,68,0.00,,,-99.99,890.000000,,2013-07-05 16:53:00,
2013-07-05 13:12:00,86.0,74.0,-100.00,ESE,106,16.0,-999.0,69,0.00,,,-99.99,976.000000,,2013-07-05 17:12:00,
2013-07-05 13:33:00,86.0,75.0,-100.00,ESE,120,15.0,-999.0,70,0.00,,,-99.99,820.000000,,2013-07-05 17:33:00,
2013-07-05 13:53:00,86.0,75.0,-100.00,ESE,115,14.0,-999.0,69,0.00,,,-99.99,878.000000,,2013-07-05 17:53:00,
2013-07-05 14:11:00,86.0,75.0,-100.00,SE,124,14.0,-999.0,69,0.00,,,-99.99,873.000000,,2013-07-05 18:11:00,
2013-07-05 14:22:00,85.0,75.0,-100.00,ESE,121,14.0,-999.0,70,0.00,,,-99.99,646.799988,,2013-07-05 18:22:00,
2013-07-05 14:33:00,85.0,75.0,-100.00,ESE,121,14.0,-999.0,70,0.00,,,-99.99,646.799988,,2013-07-05 18:33:00,
2013-07-05 14:53:00,87.0,75.0,-100.00,SE,133,15.0,-999.0,67,0.00,,,-99.99,1002.000000,,2013-07-05 18:53:00,
2013-07-05 15:01:00,87.0,75.0,-100.00,SE,133,15.0,-999.0,67,0.00,,,-99.99,1002.000000,,2013-07-05 19:01:00,
2013-07-05 15:12:00,86.0,74.0,-100.00,ESE,117,14.0,-999.0,68,0.00,,,-99.99,746.000000,,2013-07-05 19:12:00,
2013-07-05 15:22:00,87.0,74.0,-100.00,ESE,115,13.0,-999.0,67,0.00,,,-99.99,863.000000,,2013-07-05 19:22:00,
2013-07-05 15:34:00,86.0,75.0,-100.00,ESE,114,14.0,-999.0,69,0.00,,,-99.99,721.000000,,2013-07-05 19:34:00,
2013-07-05 15:43:00,86.0,75.0,-100.00,ESE,114,14.0,-999.0,69,0.00,,,-99.99,721.000000,,2013-07-05 19:43:00,
2013-07-05 15:53:00,85.0,74.0,-100.00,ESE,119,14.0,-999.0,67,0.00,,,-99.99,536.299988,,2013-07-05 19:53:00,
2013-07-05 16:02:00,85.0,74.0,-100.00,ESE,119,14.0,-999.0,67,0.00,,,-99.99,536.299988,,2013-07-05 20:02:00,
2013-07-05 16:11:00,85.0,74.0,-100.00,ESE,119,14.0,-999.0,67,0.00,,,-99.99,536.299988,,2013-07-05 20:11:00,
2013-07-05 16:22:00,85.0,74.0,-100.00,ESE,122,14.0,-999.0,69,0.00,,,-99.99,528.000000,,2013-07-05 20:22:00,
2013-07-05 16:53:00,85.0,74.0,-100.00,ESE,118,14.0,-999.0,70,0.00,,,-99.99,545.000000,,2013-07-05 20:53:00,
2013-07-05 17:01:00,84.0,75.0,-100.00,ESE,111,15.0,-999.0,73,0.00,,,-99.99,438.899994,,2013-07-05 21:01:00,
2013-07-05 17:22:00,85.0,76.0,-100.00,ESE,115,12.0,-999.0,73,0.00,,,-99.99,562.099976,,2013-07-05 21:22:00,
2013-07-05 17:34:00,85.0,76.0,-100.00,ESE,115,12.0,-999.0,73,0.00,,,-99.99,562.099976,,2013-07-05 21:34:00,
2013-07-05 17:53:00,85.0,75.0,-100.00,ESE,111,13.0,-999.0,72,0.00,,,-99.99,507.200012,,2013-07-05 21:53:00,
2013-07-05 18:02:00,85.0,75.0,-100.00,ESE,113,13.0,-999.0,73,0.00,,,-99.99,443.600006,,2013-07-05 22:02:00,
2013-07-05 18:22:00,84.0,74.0,-100.00,ESE,107,14.0,-999.0,73,0.00,,,-99.99,311.100006,,2013-07-05 22:22:00,
2013-07-05 18:34:00,84.0,75.0,-100.00,ESE,119,12.0,-999.0,72,0.00,,,-99.99,330.600006,,2013-07-05 22:34:00,
2013-07-05 18:53:00,84.0,74.0,-100.00,ESE,119,13.0,-999.0,72,0.00,,,-99.99,296.399994,,2013-07-05 22:53:00,
2013-07-05 19:23:00,83.0,75.0,-100.00,ESE,104,11.0,-999.0,76,0.00,,,-99.99,144.100006,,2013-07-05 23:23:00,
2013-07-05 19:32:00,83.0,75.0,-100.00,ESE,111,10.0,-999.0,78,0.00,,,-99.99,117.800003,,2013-07-05 23:32:00,
2013-07-05 19:53:00,82.0,75.0,-100.00,ESE,106,10.0,-999.0,80,0.00,,,-99.99,62.700001,,2013-07-05 23:53:00,
2013-07-05 20:22:00,81.0,75.0,-100.00,ESE,118,8.0,-999.0,81,0.00,,,-99.99,12.700000,,2013-07-06 00:22:00,
2013-07-05 20:53:00,81.0,75.0,-100.00,ESE,113,7.0,-999.0,82,0.00,,,-99.99,1.300000,,2013-07-06 00:53:00,
2013-07-05 21:02:00,80.0,75.0,-100.00,ESE,103,6.0,-999.0,84,0.00,,,-99.99,0.000000,,2013-07-06 01:02:00,
2013-07-05 21:22:00,80.0,75.0,-100.00,ESE,108,6.0,-999.0,86,0.00,,,-99.99,0.000000,,2013-07-06 01:22:00,
2013-07-05 21:33:00,80.0,75.0,-100.00,ESE,108,6.0,-999.0,86,0.00,,,-99.99,0.000000,,2013-07-06 01:33:00,
2013-07-05 21:53:00,79.0,75.0,-100.00,SE,126,6.0,-999.0,87,0.00,,,-99.99,0.000000,,2013-07-06 01:53:00,
2013-07-05 22:12:00,78.0,73.0,-100.00,SSE,148,7.0,-999.0,87,0.00,,,-99.99,0.000000,,2013-07-06 02:12:00,
2013-07-05 22:22:00,77.0,73.0,-100.00,SE,133,4.0,-999.0,86,0.00,,,-99.99,0.000000,,2013-07-06 02:22:00,
2013-07-05 22:53:00,77.0,73.0,-100.00,ESE,113,3.0,-999.0,88,0.00,,,-99.99,0.000000,,2013-07-06 02:53:00,
2013-07-05 23:02:00,77.0,73.0,-100.00,ESE,113,3.0,-999.0,88,0.00,,,-99.99,0.000000,,2013-07-06 03:02:00,
2013-07-05 23:12:00,76.0,73.0,-100.00,ESE,111,3.0,-999.0,90,0.00,,,-99.99,0.000000,,2013-07-06 03:12:00,
2013-07-05 23:22:00,76.0,73.0,-100.00,East,100,3.0,-999.0,91,0.00,,,-99.99,0.000000,,2013-07-06 03:22:00,
2013-07-05 23:43:00,76.0,73.0,-100.00,East,85,3.0,-999.0,92,0.00,,,-99.99,0.000000,,2013-07-06 03:43:00,
2013-07-05 23:53:00,76.0,74.0,-100.00,East,82,4.0,-999.0,93,0.00,,,-99.99,0.000000,,2013-07-06 03:53:00,